Stations météo

réclame
Mon MeteoGroup
Helsingborg, Suède (2611): Température de l'air & dewpoint: 17.10.2018 01:00:00 - 23.10.2018 01:00:00 (CEST)Helsingborg, Suède (2611): Vitesse du vent & gusts: 17.10.2018 01:00:00 - 23.10.2018 01:00:00 (CEST)Helsingborg, Suède (2611): Direction du vent: 17.10.2018 01:00:00 - 23.10.2018 01:00:00 (CEST)Helsingborg, Suède (2611): reduced air pressure: 17.10.2018 01:00:00 - 23.10.2018 01:00:00 (CEST)Helsingborg, Suède (2611): visibility: 17.10.2018 01:00:00 - 23.10.2018 01:00:00 (CEST)Helsingborg, Suède (2611): Quantités de précipitations: 17.10.2018 01:00:00 - 23.10.2018 01:00:00 (CEST)
Date & Time tt [°C] td [°C] ff [km/h] ff [knt] fx [km/h] fx [knt] dd ppp [hPa] vv [km] rr [mm]
23.10.2018 01:00:00 8,2 6,7 19 11 34 19 SW 1016,5 7 1,0
23.10.2018 00:00:00 8,9 5,8 16 9 34 18 WSW 1018,4 11 0,2
22.10.2018 23:00:00 9,5 3,5 17 9 34 18 WSW 1020,1 30 0,0
22.10.2018 22:00:00 9,3 3,5 18 10 30 16 W 1021,4 26 0,0
22.10.2018 21:00:00 8,9 2,9 12 7 28 15 WSW 1022,1 26 0,0
22.10.2018 20:00:00 8,9 2,9 11 6 39 21 W 1022,8 25 0,0
22.10.2018 19:00:00 9,3 2,6 15 8 39 21 W 1023,1 30 0,0
22.10.2018 18:00:00 10,2 2,5 22 12 44 24 WNW 1023,7 34 0,0
22.10.2018 17:00:00 10,6 3,8 22 12 47 26 WNW 1023,6 23 0,0
22.10.2018 16:00:00 11,4 3,4 27 15 55 30 WNW 1024,0 30 0,0
22.10.2018 15:00:00 10,9 4,1 26 14 55 30 WNW 1023,6 26 0,0
22.10.2018 14:00:00 11,0 3,1 29 16 54 29 WNW 1024,0 24 0,0
22.10.2018 13:00:00 11,2 4,4 23 12 54 29 WNW 1023,5 19 0,0
22.10.2018 12:00:00 11,3 4,5 24 13 51 28 WNW 1023,5 22 0,0
22.10.2018 11:00:00 10,7 4,4 29 16 49 26 WNW 1023,1 24 0,0
22.10.2018 10:00:00 10,4 4,5 27 15 50 27 WNW 1022,5 27 0,0
22.10.2018 09:00:00 10,1 5,7 23 13 50 27 WNW 1022,2 22 0,0
22.10.2018 08:00:00 10,3 6,3 24 13 42 23 WNW 1021,5 28 0,0
22.10.2018 07:00:00 10,4 6,9 17 9 42 23 WNW 1021,2 28 0,0
22.10.2018 06:00:00 10,7 6,6 18 10 42 23 WNW 1020,9 32 0,0
22.10.2018 05:00:00 10,9 8,5 16 8 37 20 NW 1020,4 27 0,0
22.10.2018 04:00:00 11,4 10,6 12 7 34 18 WNW 1020,1 4,4 0,5
22.10.2018 03:00:00 11,3 10,5 19 10 34 18 WNW 1020,2 3,4 1,0
22.10.2018 02:00:00 12,6 11,5 14 7 26 14 WSW 1019,9 2,3 0,0
22.10.2018 01:00:00 13,4 11,1 15 8 26 14 SW 1020,2 6 0,0
22.10.2018 00:00:00 13,4 11,1 13 7 24 13 SW 1020,5 6 0,0
21.10.2018 23:00:00 13,3 11,2 14 8 23 13 SSW 1020,8 6 0,0
21.10.2018 22:00:00 13,2 11,3 12 7 24 13 SSW 1021,1 6 0,0
21.10.2018 21:00:00 13,2 11,3 14 8 24 13 SSW 1021,4 6 0,0
21.10.2018 20:00:00 13,2 11,4 15 8 23 13 SSW 1021,6 7 0,0
21.10.2018 19:00:00 13,0 11,2 15 8 25 13 S 1022,0 11 0,0
21.10.2018 18:00:00 13,0 10,5 14 8 27 15 SSW 1022,3 34 0,0
21.10.2018 17:00:00 13,2 10,2 15 8 27 15 SSW 1022,6 43 0,0
21.10.2018 16:00:00 13,3 9,9 15 8 26 14 SSW 1023,2 50 0,0
21.10.2018 15:00:00 13,4 10,2 11 6 21 11 S 1023,8 42 0,0
21.10.2018 14:00:00 12,9 9,7 13 7 21 12 SSW 1024,5 46 0,0
21.10.2018 13:00:00 12,3 10,0 13 7 23 13 S 1025,0 23 0,0
21.10.2018 12:00:00 12,3 9,5 13 7 23 13 SSW 1025,5 37 0,0
21.10.2018 11:00:00 11,4 8,8 16 8 22 12 SSW 1025,8 24 0,0
21.10.2018 10:00:00 11,1 8,8 14 8 22 12 SSW 1025,9 27 0,0
21.10.2018 09:00:00 9,2 8,4 7 4 13 7 S 1026,1 26 0,0
21.10.2018 08:00:00 9,3 8,4 8 4 13 7 SW 1025,9 22 0,0
21.10.2018 07:00:00 7,1 6,7 5 3 9 5 S 1025,9 15 0,0
21.10.2018 06:00:00 6,6 5,9 3 1 9 5 S 1026,1 3,4 0,0
21.10.2018 05:00:00 7,1 6,4 5 3 11 6 SW 1026,4 15 0,0
21.10.2018 04:00:00 7,4 6,0 4 2 14 8 SW 1026,3 19 0,0
21.10.2018 03:00:00 9,2 7,3 5 3 14 8 W 1026,4 25 0,0
21.10.2018 02:00:00 8,3 7,5 6 3 11 6 W 1026,3 19 0,0
21.10.2018 01:00:00 7,1 5,9 4 2 8 5 W 1026,0 20 0,0
21.10.2018 00:00:00 7,0 5,8 3 1 16 8 NNW 1026,5 19 0,0
20.10.2018 23:00:00 7,9 5,7 4 2 18 10 NNW 1026,4 24 0,0
20.10.2018 22:00:00 9,9 6,6 8 5 18 10 NW 1026,3 32 0,0
20.10.2018 21:00:00 10,8 6,9 8 4 18 10 NW 1026,2 42 0,0
20.10.2018 20:00:00 9,5 6,8 5 3 20 11 WNW 1026,0 33 0,0
20.10.2018 19:00:00 9,6 6,5 6 3 34 18 NW 1025,6 34 0,0
20.10.2018 18:00:00 10,9 7,2 9 5 38 20 NW 1025,3 31 0,0
20.10.2018 17:00:00 12,5 7,4 19 11 38 20 WNW 1025,1 31 0,0
20.10.2018 16:00:00 12,2 6,9 16 9 33 18 WNW 1025,0 31 0,0
20.10.2018 15:00:00 12,9 7,8 16 9 33 18 WNW 1024,9 31 0,0
20.10.2018 14:00:00 13,0 8,9 13 7 33 18 WNW 1024,8 33 0,0
20.10.2018 13:00:00 12,2 9,0 14 8 32 17 WNW 1024,5 33 0,0
20.10.2018 12:00:00 11,9 9,6 10 5 17 9 W 1024,3 25 0,0
20.10.2018 11:00:00 10,5 8,9 8 4 21 12 W 1024,2 25 0,0
20.10.2018 10:00:00 9,3 8,1 10 6 21 12 SW 1023,8 15 0,0
20.10.2018 09:00:00 - - - - 20 11 - - - -
20.10.2018 08:00:00 8,8 7,2 10 6 20 11 WSW 1023,7 12 0,4
20.10.2018 07:00:00 9,5 5,5 8 4 19 10 WSW 1023,6 44 0,0
20.10.2018 06:00:00 9,5 4,3 11 6 19 10 SW 1023,4 50 0,0
20.10.2018 05:00:00 8,9 4,7 5 3 16 8 SW 1023,3 50 0,0
20.10.2018 04:00:00 10,0 5,2 7 4 14 8 WSW 1023,5 50 0,0
20.10.2018 03:00:00 10,0 4,8 6 3 16 9 WSW 1023,8 50 0,0
20.10.2018 02:00:00 10,0 6,2 6 3 16 9 WSW 1024,0 49 0,0
20.10.2018 01:00:00 10,1 6,4 9 5 14 8 WSW 1024,0 50 0,0
20.10.2018 00:00:00 10,1 6,3 7 4 14 8 WSW 1024,0 50 0,0
19.10.2018 23:00:00 10,2 5,8 6 3 16 9 WSW 1024,0 50 0,0
19.10.2018 22:00:00 10,1 7,0 9 5 16 9 SW 1024,2 46 0,0
19.10.2018 21:00:00 10,1 6,8 6 4 11 6 SW 1024,3 45 0,0
19.10.2018 20:00:00 8,9 6,2 3 2 7 4 SW 1024,0 32 0,0
19.10.2018 19:00:00 7,1 5,4 3 1 14 8 WSW 1024,0 31 0,0
19.10.2018 18:00:00 8,5 5,2 3 2 22 12 WNW 1023,7 43 0,0
19.10.2018 17:00:00 10,9 5,4 8 5 22 12 WNW 1023,8 39 0,0
19.10.2018 16:00:00 10,9 5,6 10 6 20 11 WNW 1024,3 50 0,0
19.10.2018 15:00:00 11,4 6,3 9 5 17 9 NW 1024,5 36 0,0
19.10.2018 14:00:00 11,4 5,9 8 4 15 8 WNW 1024,7 45 0,0
19.10.2018 13:00:00 12,0 6,5 5 3 14 8 W 1024,8 41 0,0
19.10.2018 12:00:00 11,1 7,2 7 4 14 8 W 1024,9 29 0,0
19.10.2018 11:00:00 10,4 9,0 5 3 8 4 SSW 1025,1 21 0,0
19.10.2018 10:00:00 7,0 6,7 0 0 4 2 N 1025,0 13 0,0
19.10.2018 09:00:00 4,0 3,6 0 0 5 3 N 1024,9 6 0,0
19.10.2018 08:00:00 2,9 2,5 0 0 5 3 N 1024,6 1,6 0,0
19.10.2018 07:00:00 2,7 2,3 3 1 4 2 SE 1024,4 7 0,0
19.10.2018 06:00:00 2,6 2,2 0 0 3 2 N 1024,3 14 0,0
19.10.2018 05:00:00 2,2 1,8 0 0 5 3 N 1024,4 29 0,0
19.10.2018 04:00:00 1,8 1,2 0 0 5 3 N 1024,5 32 0,0
19.10.2018 03:00:00 2,2 1,6 2 1 6 3 NE 1024,4 29 0,0
19.10.2018 02:00:00 4,2 3,6 5 3 6 3 NW 1024,4 41 0,0
19.10.2018 01:00:00 3,4 2,4 3 2 6 3 N 1024,6 39 0,0
19.10.2018 00:00:00 4,5 3,3 0 0 11 6 N 1024,6 50 0,0
18.10.2018 23:00:00 4,7 3,4 6 4 15 8 NNW 1024,6 50 0,0
18.10.2018 22:00:00 6,2 4,5 8 4 21 11 NNW 1024,3 47 0,0
18.10.2018 21:00:00 7,4 5,0 10 5 22 12 NNW 1023,6 46 0,0
18.10.2018 20:00:00 8,1 5,6 12 6 22 12 NNW 1023,1 45 0,0
18.10.2018 19:00:00 8,4 5,7 8 5 30 16 NW 1023,0 45 0,0
18.10.2018 18:00:00 9,6 5,6 9 5 35 19 NW 1022,5 44 0,0
18.10.2018 17:00:00 11,9 6,0 15 8 35 19 NW 1022,2 39 0,0
18.10.2018 16:00:00 13,4 5,5 19 10 35 19 NW 1022,1 32 0,0
18.10.2018 15:00:00 14,1 6,5 20 11 36 20 NW 1021,7 34 0,0
18.10.2018 14:00:00 14,3 7,6 16 8 36 20 NNW 1021,3 35 0,0
18.10.2018 13:00:00 15,8 8,3 19 11 36 20 NW 1021,7 23 0,0
18.10.2018 12:00:00 14,5 9,1 22 12 33 18 NNW 1021,5 30 0,0
18.10.2018 11:00:00 13,6 10,0 18 10 27 15 NNW 1021,1 28 0,0
18.10.2018 10:00:00 12,7 11,3 11 6 23 13 NNW 1020,7 14 0,0
18.10.2018 09:00:00 12,5 11,6 13 7 29 16 NNW 1020,1 8 0,0
18.10.2018 08:00:00 12,2 11,4 13 7 29 16 NNW 1019,6 6 0,0
18.10.2018 07:00:00 12,6 12,0 10 6 18 10 NNW 1018,9 2,1 0,0
18.10.2018 06:00:00 12,4 11,8 5 3 9 5 NW 1018,6 0,3 0,0
18.10.2018 05:00:00 11,6 11,0 3 1 7 4 WNW 1018,7 0,6 0,0
18.10.2018 04:00:00 10,7 10,1 0 0 6 3 N 1018,7 2,0 0,0
18.10.2018 03:00:00 9,9 9,3 0 0 8 4 N 1018,7 1,6 0,0
18.10.2018 02:00:00 9,9 9,0 0 0 8 5 N 1018,9 2,0 0,0
18.10.2018 01:00:00 10,7 9,6 3 2 9 5 SSE 1018,9 2,9 0,0
18.10.2018 00:00:00 11,4 10,1 4 2 10 6 S 1019,2 3,0 0,0
17.10.2018 23:00:00 12,1 10,8 6 3 10 6 S 1019,4 4,4 0,0
17.10.2018 22:00:00 11,6 10,3 3 1 11 6 SSE 1019,3 3,2 0,0
17.10.2018 21:00:00 12,1 10,5 4 2 11 6 S 1019,2 4,5 0,0
17.10.2018 20:00:00 12,4 10,6 4 2 9 5 S 1019,0 4,7 0,0
17.10.2018 19:00:00 - - - - 11 6 - - - -
17.10.2018 18:00:00 14,6 11,2 8 4 21 11 S 1018,7 9 0,0
17.10.2018 17:00:00 15,9 11,9 6 4 21 11 S 1018,6 10 0,0
17.10.2018 16:00:00 17,0 12,7 10 6 21 11 S 1018,7 10 0,0
17.10.2018 15:00:00 17,7 13,2 10 5 24 13 S 1018,9 8 0,0
17.10.2018 14:00:00 17,5 13,4 11 6 24 13 S 1019,0 6 0,0
17.10.2018 13:00:00 16,2 13,5 13 7 21 11 S 1019,3 4,0 0,0
17.10.2018 12:00:00 15,8 14,5 10 6 16 9 S 1019,5 3,2 0,0
17.10.2018 11:00:00 13,1 12,8 5 3 9 5 SSE 1019,5 1,6 0,0
17.10.2018 10:00:00 10,9 10,6 4 2 10 5 SE 1019,4 1,0 0,0
17.10.2018 09:00:00 10,5 10,2 5 3 10 5 SE 1019,4 0,2 0,0
17.10.2018 08:00:00 9,0 8,7 3 1 8 4 SE 1019,3 0,1 0,0
17.10.2018 07:00:00 8,4 8,1 0 0 8 4 N 1019,1 0,2 0,0
17.10.2018 06:00:00 9,1 8,8 4 2 8 4 SE 1019,2 0,5 0,0
17.10.2018 05:00:00 8,3 8,0 5 3 6 3 ESE 1018,9 0,1 0,0
17.10.2018 04:00:00 8,3 7,9 4 2 5 3 ESE 1018,9 0,1 0,0
17.10.2018 03:00:00 8,0 7,6 2 1 4 2 E 1019,1 0,4 0,0
17.10.2018 02:00:00 8,5 8,1 0 0 4 2 N 1019,0 0,2 0,0
17.10.2018 01:00:00 8,9 8,3 0 0 5 3 N 1019,0 0,8 0,0

tt = Température de l'air
td = dewpoint
ff = Vitesse du vent
fx = gusts
dd = Direction du vent
ppp = reduced air pressure
vv = visibility
rr = Quantités de précipitations

stations d'obs. à proximité